| time (UTC) | temp C | wind direction | speed KPH | gust KPH | rain 1hr cm | rain 24hr cm | rain mn cm | humidity % | barometer mb |
| 20260906035552 | 12 | 313 | 0.0 | 0.0 | 0.00 | 0.05 | 0.05 | 93 | 1013.9 |
| 20260906035048 | 13 | 317 | 0.0 | 0.0 | 0.00 | 0.05 | 0.05 | 92 | 1013.9 |
| 20260906034548 | 13 | 307 | 0.0 | 0.0 | 0.00 | 0.05 | 0.05 | 90 | 1014.0 |
| 20260906034037 | 13 | 299 | 0.0 | 0.0 | 0.00 | 0.05 | 0.05 | 89 | 1014.0 |
| 20260906033532 | 14 | 296 | 0.0 | 0.0 | 0.00 | 0.05 | 0.05 | 88 | 1013.8 |
| 20260906033028 | 14 | 311 | 0.0 | 0.0 | 0.00 | 0.05 | 0.05 | 87 | 1013.9 |
| 20260906032524 | 15 | 349 | 0.0 | 0.0 | 0.00 | 0.05 | 0.05 | 86 | 1013.9 |
| 20260906032024 | 15 | 224 | 0.0 | 0.0 | 0.00 | 0.05 | 0.05 | 86 | 1013.7 |
| 20260906031520 | 15 | 300 | 0.0 | 0.0 | 0.00 | 0.05 | 0.05 | 85 | 1013.7 |
| 20260906031010 | 15 | 349 | 0.0 | 0.0 | 0.00 | 0.05 | 0.05 | 84 | 1013.8 |
| 20260906030509 | 15 | 343 | 0.0 | 0.0 | 0.00 | 0.05 | 0.05 | 83 | 1013.8 |
| 20260906030009 | 16 | 321 | 0.0 | 0.0 | 0.00 | 0.05 | 0.05 | 83 | 1013.8 |
| 20260906025508 | 16 | 340 | 0.0 | 1.6 | 0.00 | 0.05 | 0.05 | 82 | 1013.6 |
| 20260906025006 | 16 | 314 | 0.0 | 1.6 | 0.00 | 0.05 | 0.05 | 82 | 1013.4 |
| 20260906024501 | 16 | 14 | 0.0 | 1.6 | 0.00 | 0.05 | 0.05 | 83 | 1013.9 |
| 20260906023956 | 16 | 14 | 1.6 | 1.6 | 0.00 | 0.05 | 0.05 | 82 | 1013.5 |
| 20260906023452 | 16 | 349 | 0.0 | 1.6 | 0.00 | 0.05 | 0.05 | 82 | 1013.7 |
| 20260906022947 | 16 | 0 | 3.2 | 3.2 | 0.00 | 0.05 | 0.05 | 83 | 1013.5 |
| 20260906022443 | 16 | 317 | 0.0 | 0.0 | 0.00 | 0.05 | 0.05 | 84 | 1013.5 |
| 20260906021937 | 15 | 8 | 1.6 | 1.6 | 0.00 | 0.05 | 0.05 | 85 | 1013.5 |
| 20260906021432 | 15 | 336 | 0.0 | 0.0 | 0.00 | 0.05 | 0.05 | 85 | 1013.5 |
| 20260906020926 | 15 | 310 | 0.0 | 0.0 | 0.00 | 0.05 | 0.05 | 86 | 1013.4 |
| 20260906020421 | 15 | 317 | 0.0 | 0.0 | 0.00 | 0.05 | 0.05 | 87 | 1013.6 |
| 20260906015915 | 15 | 348 | 0.0 | 0.0 | 0.00 | 0.05 | 0.05 | 87 | 1013.2 |
| 20260906015415 | 15 | 346 | 0.0 | 0.0 | 0.00 | 0.05 | 0.05 | 86 | 1013.5 |
| 20260906014909 | 15 | 27 | 1.6 | 1.6 | 0.00 | 0.05 | 0.05 | 87 | 1013.5 |
| 20260906014408 | 15 | 306 | 1.6 | 3.2 | 0.00 | 0.05 | 0.05 | 89 | 1013.4 |
| 20260906013905 | 15 | 322 | 0.0 | 0.0 | 0.00 | 0.05 | 0.05 | 91 | 1013.7 |
| 20260906013400 | 14 | 350 | 3.2 | 3.2 | 0.00 | 0.05 | 0.05 | 91 | 1013.4 |
| 20260906012855 | 15 | 323 | 0.0 | 0.0 | 0.00 | 0.05 | 0.05 | 92 | 1013.6 |
| 20260906012350 | 15 | 327 | 0.0 | 0.0 | 0.00 | 0.05 | 0.05 | 91 | 1013.7 |
| 20260906011845 | 14 | 328 | 0.0 | 0.0 | 0.00 | 0.05 | 0.05 | 92 | 1013.4 |
| 20260906011339 | 13 | 329 | 0.0 | 0.0 | 0.00 | 0.05 | 0.05 | 93 | 1013.3 |
| 20260906010835 | 13 | 316 | 0.0 | 0.0 | 0.00 | 0.05 | 0.05 | 96 | 1013.3 |
| 20260906010331 | 13 | 323 | 0.0 | 0.0 | 0.00 | 0.05 | 0.05 | 96 | 1013.3 |
| 20260906005826 | 13 | 320 | 0.0 | 0.0 | 0.00 | 0.05 | 0.05 | 95 | 1013.5 |
| 20260906005325 | 13 | 320 | 0.0 | 0.0 | 0.00 | 0.05 | 0.05 | 94 | 1013.5 |
| 20260906004819 | 14 | 320 | 0.0 | 0.0 | 0.00 | 0.05 | 0.05 | 94 | 1013.4 |
| 20260906004319 | 14 | 321 | 0.0 | 0.0 | 0.00 | 0.05 | 0.05 | 93 | 1013.3 |
| 20260906003814 | 15 | 322 | 0.0 | 0.0 | 0.00 | 0.05 | 0.05 | 92 | 1013.1 |
| 20260906003309 | 15 | 321 | 0.0 | 0.0 | 0.00 | 0.05 | 0.05 | 91 | 1013.1 |
| 20260906002805 | 15 | 322 | 0.0 | 0.0 | 0.00 | 0.05 | 0.05 | 90 | 1013.0 |
| 20260906002306 | 15 | 322 | 0.0 | 0.0 | 0.00 | 0.05 | 0.05 | 89 | 1013.1 |
| 20260906001800 | 16 | 322 | 0.0 | 0.0 | 0.00 | 0.05 | 0.05 | 88 | 1013.2 |
| 20260906001255 | 16 | 322 | 0.0 | 0.0 | 0.00 | 0.05 | 0.05 | 87 | 1013.2 |
| 20260906000749 | 16 | 322 | 0.0 | 0.0 | 0.00 | 0.05 | 0.05 | 86 | 1013.1 |
| 20260906000244 | 16 | 322 | 0.0 | 0.0 | 0.00 | 0.05 | 0.05 | 86 | 1013.0 |
| 20260905235738 | 16 | 324 | 0.0 | 0.0 | 0.00 | 0.05 | 0.05 | 85 | 1013.0 |
| 20260905235233 | 16 | 326 | 0.0 | 0.0 | 0.00 | 0.05 | 0.05 | 85 | 1013.0 |
| 20260905234729 | 16 | 320 | 0.0 | 0.0 | 0.00 | 0.05 | 0.05 | 86 | 1012.7 |
| 20260905234224 | 17 | 320 | 0.0 | 0.0 | 0.00 | 0.05 | 0.05 | 84 | 1012.8 |
| 20260905233719 | 17 | 320 | 0.0 | 0.0 | 0.00 | 0.05 | 0.05 | 83 | 1012.8 |
| 20260905233218 | 17 | 328 | 0.0 | 0.0 | 0.00 | 0.05 | 0.05 | 83 | 1012.9 |
| 20260905232713 | 17 | 329 | 0.0 | 0.0 | 0.00 | 0.05 | 0.05 | 81 | 1012.9 |
| 20260905232209 | 17 | 329 | 0.0 | 0.0 | 0.00 | 0.05 | 0.05 | 81 | 1012.7 |
| 20260905231705 | 17 | 311 | 0.0 | 0.0 | 0.00 | 0.05 | 0.05 | 82 | 1012.5 |
| 20260905231200 | 17 | 311 | 0.0 | 0.0 | 0.00 | 0.05 | 0.05 | 80 | 1012.7 |
| 20260905230656 | 17 | 311 | 0.0 | 0.0 | 0.00 | 0.05 | 0.05 | 79 | 1012.3 |
| 20260905230154 | 17 | 311 | 0.0 | 0.0 | 0.00 | 0.05 | 0.05 | 78 | 1012.4 |
| 20260905225653 | 17 | 347 | 1.6 | 1.6 | 0.00 | 0.05 | 0.05 | 78 | 1012.3 |
| 20260905225148 | 17 | 298 | 0.0 | 0.0 | 0.00 | 0.05 | 0.05 | 81 | 1012.4 |
| 20260905224648 | 17 | 287 | 0.0 | 0.0 | 0.00 | 0.05 | 0.05 | 80 | 1012.6 |
| 20260905224142 | 18 | 292 | 0.0 | 0.0 | 0.00 | 0.05 | 0.05 | 78 | 1012.4 |
| 20260905223639 | 18 | 294 | 0.0 | 0.0 | 0.00 | 0.05 | 0.05 | 75 | 1012.3 |
| 20260905223136 | 19 | 300 | 0.0 | 0.0 | 0.00 | 0.05 | 0.05 | 74 | 1012.2 |
| 20260905222631 | 20 | 294 | 0.0 | 0.0 | 0.00 | 0.05 | 0.05 | 73 | 1012.2 |
| 20260905222126 | 20 | 323 | 0.0 | 0.0 | 0.00 | 0.05 | 0.05 | 73 | 1012.2 |
| 20260905221621 | 20 | 93 | 3.2 | 3.2 | 0.00 | 0.05 | 0.05 | 70 | 1012.2 |
| 20260905221118 | 20 | 298 | 0.0 | 0.0 | 0.00 | 0.05 | 0.05 | 71 | 1012.1 |
| 20260905220613 | 20 | 312 | 0.0 | 0.0 | 0.00 | 0.05 | 0.05 | 71 | 1012.0 |
| 20260905220109 | 20 | 317 | 0.0 | 0.0 | 0.00 | 0.05 | 0.05 | 69 | 1011.7 |
| 20260905215609 | 20 | 316 | 0.0 | 0.0 | 0.00 | 0.05 | 0.05 | 68 | 1011.7 |
| 20260905215105 | 20 | 3 | 1.6 | 1.6 | 0.00 | 0.05 | 0.05 | 68 | 1011.9 |
| 20260905214601 | 20 | 8 | 1.6 | 1.6 | 0.00 | 0.05 | 0.05 | 67 | 1011.9 |
| 20260905214100 | 20 | 325 | 1.6 | 1.6 | 0.00 | 0.05 | 0.05 | 67 | 1011.9 |
| 20260905213556 | 20 | 338 | 1.6 | 1.6 | 0.00 | 0.05 | 0.05 | 66 | 1011.7 |
| 20260905213051 | 20 | 10 | 6.4 | 9.7 | 0.00 | 0.05 | 0.05 | 67 | 1011.7 |
| 20260905212551 | 20 | 346 | 1.6 | 1.6 | 0.00 | 0.05 | 0.05 | 69 | 1011.6 |
| 20260905212045 | 20 | 306 | 0.0 | 1.6 | 0.00 | 0.05 | 0.05 | 69 | 1011.6 |
| 20260905211540 | 20 | 341 | 1.6 | 1.6 | 0.00 | 0.05 | 0.05 | 68 | 1011.6 |
| 20260905211036 | 21 | 18 | 9.7 | 12.9 | 0.00 | 0.05 | 0.05 | 66 | 1011.5 |
| 20260905210531 | 22 | 67 | 4.8 | 4.8 | 0.00 | 0.05 | 0.05 | 64 | 1011.2 |
| 20260905210026 | 22 | 243 | 1.6 | 3.2 | 0.00 | 0.05 | 0.05 | 65 | 1011.2 |
| 20260905205526 | 22 | 357 | 3.2 | 4.8 | 0.00 | 0.05 | 0.05 | 65 | 1011.3 |
| 20260905205025 | 21 | 349 | 1.6 | 3.2 | 0.00 | 0.05 | 0.05 | 66 | 1011.2 |
| 20260905204520 | 21 | 358 | 3.2 | 3.2 | 0.00 | 0.05 | 0.05 | 67 | 1011.2 |
| 20260905204015 | 21 | 59 | 0.0 | 1.6 | 0.00 | 0.05 | 0.05 | 68 | 1011.4 |
| 20260905203510 | 21 | 51 | 6.4 | 9.7 | 0.00 | 0.05 | 0.05 | 68 | 1011.3 |
| 20260905203005 | 21 | 44 | 3.2 | 6.4 | 0.00 | 0.05 | 0.05 | 69 | 1011.1 |
| 20260905202500 | 21 | 300 | 3.2 | 4.8 | 0.00 | 0.05 | 0.05 | 70 | 1011.1 |
| 20260905201955 | 21 | 344 | 3.2 | 6.4 | 0.00 | 0.05 | 0.05 | 70 | 1011.2 |
| 20260905201451 | 21 | 25 | 1.6 | 3.2 | 0.00 | 0.05 | 0.05 | 71 | 1011.3 |
| 20260905200950 | 21 | 309 | 0.0 | 1.6 | 0.00 | 0.05 | 0.05 | 72 | 1011.0 |
| 20260905200446 | 21 | 5 | 3.2 | 3.2 | 0.00 | 0.05 | 0.05 | 70 | 1011.2 |
| 20260905195945 | 21 | 27 | 3.2 | 3.2 | 0.00 | 0.05 | 0.05 | 70 | 1011.1 |
| 20260905195440 | 21 | 29 | 4.8 | 6.4 | 0.00 | 0.05 | 0.05 | 70 | 1011.2 |
| 20260905194936 | 21 | 139 | 1.6 | 3.2 | 0.00 | 0.05 | 0.05 | 71 | 1011.1 |
| 20260905194434 | 21 | 10 | 1.6 | 3.2 | 0.00 | 0.05 | 0.05 | 71 | 1011.2 |
| 20260905193929 | 21 | 53 | 6.4 | 6.4 | 0.00 | 0.05 | 0.05 | 70 | 1011.0 |
| 20260905193424 | 21 | 307 | 1.6 | 3.2 | 0.00 | 0.05 | 0.05 | 69 | 1011.2 |
| 20260905192919 | 21 | 52 | 6.4 | 6.4 | 0.00 | 0.05 | 0.05 | 70 | 1011.0 |
| 20260905192414 | 21 | 18 | 3.2 | 3.2 | 0.00 | 0.05 | 0.05 | 70 | 1010.9 |
| 20260905191915 | 21 | 26 | 4.8 | 4.8 | 0.00 | 0.05 | 0.05 | 70 | 1010.8 |
| 20260905191414 | 21 | 290 | 3.2 | 4.8 | 0.00 | 0.05 | 0.05 | 70 | 1010.9 |
| 20260905190908 | 21 | 27 | 1.6 | 1.6 | 0.00 | 0.05 | 0.05 | 70 | 1010.9 |
| 20260905190400 | 21 | 332 | 4.8 | 6.4 | 0.00 | 0.05 | 0.05 | 69 | 1010.9 |
| 20260905185859 | 21 | 41 | 4.8 | 4.8 | 0.00 | 0.05 | 0.05 | 70 | 1010.9 |
| 20260905185355 | 21 | 318 | 0.0 | 1.6 | 0.00 | 0.05 | 0.05 | 72 | 1010.9 |
| 20260905184853 | 22 | 9 | 4.8 | 6.4 | 0.00 | 0.05 | 0.05 | 69 | 1011.0 |
| 20260905184353 | 21 | 266 | 6.4 | 9.7 | 0.00 | 0.05 | 0.05 | 68 | 1010.8 |
| 20260905183851 | 22 | 38 | 4.8 | 12.9 | 0.00 | 0.05 | 0.05 | 69 | 1010.8 |
| 20260905183347 | 22 | 24 | 6.4 | 9.7 | 0.00 | 0.05 | 0.05 | 68 | 1011.0 |
| 20260905182841 | 21 | 304 | 3.2 | 4.8 | 0.00 | 0.05 | 0.05 | 71 | 1010.9 |
| 20260905182336 | 21 | 14 | 4.8 | 4.8 | 0.00 | 0.05 | 0.05 | 71 | 1011.0 |
| 20260905181832 | 20 | 17 | 8.0 | 11.3 | 0.00 | 0.05 | 0.05 | 74 | 1011.1 |
| 20260905181331 | 20 | 315 | 4.8 | 6.4 | 0.00 | 0.05 | 0.05 | 74 | 1011.0 |
| 20260905180830 | 20 | 17 | 0.0 | 1.6 | 0.00 | 0.05 | 0.05 | 76 | 1011.0 |
| 20260905180325 | 21 | 313 | 4.8 | 9.7 | 0.00 | 0.05 | 0.05 | 74 | 1011.0 |
| 20260905175820 | 21 | 76 | 8.0 | 12.9 | 0.00 | 0.05 | 0.05 | 74 | 1010.9 |
| 20260905175314 | 21 | 12 | 11.3 | 20.9 | 0.00 | 0.05 | 0.05 | 71 | 1011.1 |
| 20260905174810 | 21 | 52 | 1.6 | 1.6 | 0.00 | 0.05 | 0.05 | 76 | 1010.9 |
| 20260905174306 | 21 | 314 | 3.2 | 4.8 | 0.00 | 0.05 | 0.05 | 74 | 1011.0 |
| 20260905173801 | 20 | 94 | 3.2 | 4.8 | 0.00 | 0.05 | 0.05 | 74 | 1011.1 |
| 20260905173257 | 20 | 332 | 3.2 | 4.8 | 0.00 | 0.05 | 0.05 | 79 | 1011.3 |
| 20260905172757 | 20 | 353 | 4.8 | 4.8 | 0.00 | 0.05 | 0.05 | 80 | 1011.2 |
| 20260905172255 | 20 | 341 | 1.6 | 3.2 | 0.00 | 0.05 | 0.05 | 80 | 1011.2 |
| 20260905171752 | 20 | 289 | 1.6 | 3.2 | 0.00 | 0.05 | 0.05 | 79 | 1011.1 |
| 20260905171248 | 19 | 106 | 4.8 | 6.4 | 0.00 | 0.05 | 0.05 | 81 | 1011.2 |
| 20260905170744 | 19 | 298 | 1.6 | 3.2 | 0.00 | 0.05 | 0.05 | 82 | 1011.1 |
| 20260905170239 | 20 | 306 | 1.6 | 3.2 | 0.00 | 0.05 | 0.05 | 81 | 1011.1 |
| 20260905165738 | 21 | 49 | 6.4 | 6.4 | 0.00 | 0.05 | 0.05 | 78 | 1011.1 |
| 20260905165234 | 21 | 307 | 0.0 | 0.0 | 0.00 | 0.05 | 0.05 | 81 | 1011.0 |
| 20260905164728 | 20 | 232 | 3.2 | 4.8 | 0.00 | 0.05 | 0.05 | 80 | 1011.4 |
| 20260905164223 | 20 | 10 | 1.6 | 3.2 | 0.00 | 0.05 | 0.05 | 85 | 1011.2 |
| 20260905163719 | 20 | 334 | 1.6 | 1.6 | 0.00 | 0.05 | 0.05 | 89 | 1011.3 |
| 20260905163215 | 19 | 14 | 0.0 | 1.6 | 0.00 | 0.05 | 0.05 | 92 | 1011.2 |
| 20260905162710 | 18 | 77 | 4.8 | 4.8 | 0.00 | 0.05 | 0.05 | 93 | 1011.4 |
| 20260905162210 | 18 | 236 | 1.6 | 1.6 | 0.00 | 0.05 | 0.05 | 96 | 1011.3 |
| 20260905161659 | 17 | 357 | 0.0 | 0.0 | 0.00 | 0.05 | 0.05 | 97 | 1011.4 |
| 20260905161157 | 17 | 312 | 0.0 | 1.6 | 0.30 | 0.05 | 0.05 | 95 | 1011.4 |
| 20260905160651 | 19 | 39 | 3.2 | 6.4 | 0.30 | 0.05 | 0.05 | 90 | 1011.4 |
| 20260905160150 | 20 | 15 | 6.4 | 9.7 | 0.00 | 0.00 | 0.00 | 84 | 1011.1 |
| 20260905155644 | 20 | 281 | 6.4 | 9.7 | 0.00 | 0.00 | 0.00 | 83 | 1011.1 |
| 20260905155143 | 19 | 359 | 3.2 | 4.8 | 0.00 | 0.00 | 0.00 | 86 | 1011.1 |
| 20260905154638 | 19 | 4 | 1.6 | 1.6 | 0.00 | 0.00 | 0.00 | 87 | 1011.2 |
| 20260905154134 | 18 | 347 | 6.4 | 6.4 | 0.00 | 0.00 | 0.00 | 87 | 1011.1 |
| 20260905153629 | 18 | 298 | 4.8 | 4.8 | 0.00 | 0.00 | 0.00 | 88 | 1011.2 |
| 20260905153125 | 20 | 291 | 4.8 | 4.8 | 0.00 | 0.00 | 0.00 | 86 | 1011.1 |
| 20260905152620 | 19 | 74 | 4.8 | 6.4 | 0.00 | 0.00 | 0.00 | 84 | 1011.0 |
| 20260905152114 | 20 | 347 | 1.6 | 3.2 | 0.00 | 0.00 | 0.00 | 83 | 1011.0 |
| 20260905151609 | 20 | 333 | 1.6 | 3.2 | 0.00 | 0.00 | 0.00 | 82 | 1011.1 |
| 20260905151104 | 20 | 16 | 3.2 | 3.2 | 0.00 | 0.00 | 0.00 | 81 | 1011.0 |
| 20260905150600 | 19 | 359 | 1.6 | 3.2 | 0.00 | 0.00 | 0.00 | 85 | 1010.9 |
| 20260905150057 | 19 | 240 | 3.2 | 3.2 | 0.00 | 0.00 | 0.00 | 85 | 1011.1 |
| 20260905145551 | 19 | 68 | 3.2 | 4.8 | 0.00 | 0.00 | 0.00 | 85 | 1011.1 |
| 20260905145050 | 19 | 339 | 4.8 | 6.4 | 0.00 | 0.00 | 0.00 | 84 | 1011.0 |
| 20260905144545 | 19 | 7 | 3.2 | 4.8 | 0.00 | 0.00 | 0.00 | 84 | 1011.0 |
| 20260905144043 | 19 | 267 | 4.8 | 6.4 | 0.00 | 0.00 | 0.00 | 86 | 1011.0 |
| 20260905143538 | 19 | 7 | 1.6 | 3.2 | 0.00 | 0.00 | 0.00 | 86 | 1011.0 |
| 20260905143033 | 19 | 303 | 6.4 | 6.4 | 0.00 | 0.00 | 0.00 | 85 | 1010.8 |
| 20260905142531 | 19 | 79 | 6.4 | 9.7 | 0.00 | 0.00 | 0.00 | 85 | 1011.0 |
| 20260905142027 | 19 | 285 | 0.0 | 1.6 | 0.00 | 0.00 | 0.00 | 85 | 1010.8 |
| 20260905141521 | 18 | 18 | 9.7 | 12.9 | 0.00 | 0.00 | 0.00 | 86 | 1010.6 |
| 20260905141018 | 18 | 312 | 1.6 | 3.2 | 0.00 | 0.00 | 0.00 | 86 | 1010.6 |
| 20260905140513 | 18 | 344 | 3.2 | 3.2 | 0.00 | 0.00 | 0.00 | 88 | 1010.5 |
| 20260905140012 | 18 | 36 | 3.2 | 3.2 | 0.00 | 0.00 | 0.00 | 88 | 1010.5 |
| 20260905135508 | 18 | 275 | 0.0 | 0.0 | 0.00 | 0.00 | 0.00 | 90 | 1010.8 |
| 20260905135007 | 18 | 111 | 6.4 | 6.4 | 0.00 | 0.00 | 0.00 | 90 | 1010.4 |
| 20260905134502 | 18 | 337 | 3.2 | 4.8 | 0.00 | 0.00 | 0.00 | 87 | 1010.4 |
| 20260905134001 | 18 | 42 | 4.8 | 4.8 | 0.00 | 0.00 | 0.00 | 87 | 1010.5 |
| 20260905133455 | 18 | 11 | 4.8 | 6.4 | 0.00 | 0.00 | 0.00 | 87 | 1010.3 |
| 20260905132949 | 18 | 356 | 4.8 | 4.8 | 0.00 | 0.00 | 0.00 | 87 | 1010.3 |
| 20260905132445 | 18 | 311 | 3.2 | 4.8 | 0.00 | 0.00 | 0.00 | 88 | 1010.2 |
| 20260905131940 | 18 | 357 | 3.2 | 4.8 | 0.00 | 0.00 | 0.00 | 88 | 1010.1 |
| 20260905131436 | 18 | 73 | 4.8 | 9.7 | 0.00 | 0.00 | 0.00 | 89 | 1010.0 |
| 20260905130935 | 18 | 323 | 6.4 | 9.7 | 0.00 | 0.00 | 0.00 | 88 | 1010.1 |
| 20260905130429 | 18 | 303 | 3.2 | 6.4 | 0.00 | 0.00 | 0.00 | 88 | 1010.0 |
| 20260905125924 | 18 | 10 | 3.2 | 3.2 | 0.00 | 0.00 | 0.00 | 88 | 1010.0 |
| 20260905125419 | 18 | 307 | 1.6 | 3.2 | 0.00 | 0.00 | 0.00 | 89 | 1010.1 |
| 20260905124914 | 18 | 21 | 12.9 | 20.9 | 0.00 | 0.00 | 0.00 | 88 | 1010.0 |
| 20260905124410 | 18 | 33 | 4.8 | 9.7 | 0.00 | 0.00 | 0.00 | 87 | 1010.0 |
| 20260905123910 | 18 | 316 | 3.2 | 3.2 | 0.00 | 0.00 | 0.00 | 89 | 1009.8 |
| 20260905123407 | 18 | 27 | 1.6 | 1.6 | 0.00 | 0.00 | 0.00 | 90 | 1010.0 |
| 20260905122902 | 18 | 30 | 4.8 | 6.4 | 0.00 | 0.00 | 0.00 | 90 | 1009.8 |
| 20260905122400 | 17 | 355 | 1.6 | 1.6 | 0.00 | 0.00 | 0.00 | 92 | 1009.9 |
| 20260905121856 | 17 | 317 | 0.0 | 1.6 | 0.00 | 0.00 | 0.00 | 93 | 1009.7 |
| 20260905121352 | 17 | 309 | 0.0 | 0.0 | 0.00 | 0.00 | 0.00 | 94 | 1009.9 |
| 20260905120851 | 17 | 46 | 0.0 | 1.6 | 0.00 | 0.00 | 0.00 | 95 | 1009.8 |
| 20260905120346 | 17 | 6 | 1.6 | 3.2 | 0.00 | 0.00 | 0.00 | 94 | 1009.7 |
| 20260905115842 | 17 | 33 | 0.0 | 1.6 | 0.00 | 0.00 | 0.00 | 94 | 1009.8 |
| 20260905115340 | 17 | 320 | 0.0 | 0.0 | 0.00 | 0.00 | 0.00 | 95 | 1009.7 |
| 20260905114835 | 17 | 227 | 1.6 | 1.6 | 0.00 | 0.00 | 0.00 | 95 | 1009.6 |
| 20260905114334 | 16 | 25 | 3.2 | 4.8 | 0.00 | 0.00 | 0.00 | 95 | 1009.7 |
| 20260905113834 | 16 | 33 | 1.6 | 3.2 | 0.00 | 0.00 | 0.00 | 96 | 1009.7 |
| 20260905113330 | 16 | 50 | 1.6 | 1.6 | 0.00 | 0.00 | 0.00 | 97 | 1009.8 |
| 20260905112825 | 16 | 84 | 0.0 | 0.0 | 0.00 | 0.00 | 0.00 | 97 | 1009.8 |
| 20260905112320 | 16 | 332 | 0.0 | 0.0 | 0.00 | 0.00 | 0.00 | 98 | 1009.6 |
| 20260905111815 | 16 | 65 | 3.2 | 3.2 | 0.00 | 0.00 | 0.00 | 98 | 1009.5 |
| 20260905111309 | 16 | 311 | 0.0 | 0.0 | 0.00 | 0.00 | 0.00 | 99 | 1009.6 |
| 20260905110808 | 15 | 319 | 0.0 | 0.0 | 0.00 | 0.00 | 0.00 | 99 | 1009.4 |
| 20260905110302 | 15 | 319 | 0.0 | 0.0 | 0.00 | 0.00 | 0.00 | 99 | 1009.4 |
| 20260905105758 | 15 | 293 | 0.0 | 0.0 | 0.00 | 0.00 | 0.00 | 99 | 1009.5 |
| 20260905105257 | 15 | 289 | 0.0 | 0.0 | 0.00 | 0.00 | 0.00 | 99 | 1009.5 |
| 20260905104751 | 15 | 308 | 0.0 | 0.0 | 0.00 | 0.00 | 0.00 | 99 | 1009.5 |
| 20260905104248 | 15 | 311 | 0.0 | 0.0 | 0.00 | 0.00 | 0.00 | 99 | 1009.2 |
| 20260905103747 | 15 | 318 | 0.0 | 0.0 | 0.00 | 0.00 | 0.00 | 99 | 1009.1 |
| 20260905103243 | 15 | 316 | 0.0 | 0.0 | 0.00 | 0.00 | 0.00 | 99 | 1009.1 |
| 20260905102739 | 15 | 313 | 0.0 | 0.0 | 0.00 | 0.00 | 0.00 | 99 | 1009.0 |
| 20260905102235 | 15 | 317 | 0.0 | 0.0 | 0.00 | 0.00 | 0.00 | 99 | 1008.9 |
| 20260905101734 | 15 | 328 | 0.0 | 0.0 | 0.00 | 0.00 | 0.00 | 99 | 1008.8 |
| 20260905101233 | 15 | 338 | 0.0 | 1.6 | 0.00 | 0.00 | 0.00 | 99 | 1008.9 |
| 20260905100728 | 15 | 315 | 0.0 | 0.0 | 0.00 | 0.00 | 0.00 | 99 | 1008.9 |
| 20260905100223 | 14 | 317 | 0.0 | 1.6 | 0.00 | 0.00 | 0.00 | 99 | 1008.9 |
| 20260905095718 | 13 | 312 | 0.0 | 0.0 | 0.00 | 0.00 | 0.00 | 99 | 1008.9 |
| 20260905095218 | 14 | 300 | 0.0 | 0.0 | 0.00 | 0.00 | 0.00 | 99 | 1008.8 |
| 20260905094713 | 14 | 302 | 0.0 | 0.0 | 0.00 | 0.00 | 0.00 | 99 | 1008.7 |
| 20260905094213 | 14 | 301 | 0.0 | 0.0 | 0.00 | 0.00 | 0.00 | 99 | 1008.9 |
| 20260905093707 | 14 | 296 | 0.0 | 0.0 | 0.00 | 0.00 | 0.00 | 99 | 1008.7 |
| 20260905093204 | 14 | 304 | 0.0 | 0.0 | 0.00 | 0.00 | 0.00 | 99 | 1008.7 |
| 20260905092658 | 14 | 304 | 0.0 | 0.0 | 0.00 | 0.00 | 0.00 | 99 | 1008.5 |
| 20260905092153 | 14 | 301 | 0.0 | 0.0 | 0.00 | 0.00 | 0.00 | 99 | 1008.5 |
| 20260905091648 | 14 | 300 | 0.0 | 0.0 | 0.00 | 0.00 | 0.00 | 99 | 1008.7 |
| 20260905091147 | 14 | 298 | 0.0 | 0.0 | 0.00 | 0.00 | 0.00 | 99 | 1008.7 |
| 20260905090642 | 14 | 309 | 0.0 | 0.0 | 0.00 | 0.00 | 0.00 | 99 | 1008.7 |
| 20260905090138 | 14 | 311 | 0.0 | 0.0 | 0.00 | 0.00 | 0.00 | 99 | 1008.4 |
| 20260905085636 | 14 | 296 | 0.0 | 0.0 | 0.00 | 0.00 | 0.00 | 99 | 1008.6 |
| 20260905085132 | 14 | 310 | 0.0 | 0.0 | 0.00 | 0.00 | 0.00 | 99 | 1008.5 |
| 20260905084631 | 13 | 320 | 0.0 | 0.0 | 0.00 | 0.00 | 0.00 | 99 | 1008.4 |
| 20260905084126 | 14 | 318 | 0.0 | 0.0 | 0.00 | 0.00 | 0.00 | 99 | 1008.5 |
| 20260905083621 | 13 | 313 | 0.0 | 0.0 | 0.00 | 0.00 | 0.00 | 99 | 1008.2 |
| 20260905083117 | 13 | 306 | 0.0 | 0.0 | 0.00 | 0.00 | 0.00 | 99 | 1008.1 |
| 20260905082612 | 14 | 315 | 0.0 | 0.0 | 0.00 | 0.00 | 0.00 | 99 | 1008.2 |
| 20260905082108 | 14 | 333 | 0.0 | 0.0 | 0.00 | 0.00 | 0.00 | 99 | 1008.2 |
| 20260905081607 | 14 | 314 | 0.0 | 0.0 | 0.00 | 0.00 | 0.00 | 99 | 1008.1 |
| 20260905081057 | 14 | 313 | 0.0 | 0.0 | 0.00 | 0.00 | 0.00 | 99 | 1008.3 |
| 20260905080557 | 13 | 320 | 0.0 | 0.0 | 0.00 | 0.00 | 0.00 | 99 | 1008.1 |
| 20260905080051 | 14 | 317 | 0.0 | 0.0 | 0.00 | 0.00 | 0.00 | 99 | 1008.0 |
| 20260905075544 | 14 | 318 | 0.0 | 0.0 | 0.00 | 0.00 | 0.00 | 99 | 1008.0 |
| 20260905075038 | 14 | 343 | 0.0 | 0.0 | 0.00 | 0.00 | 0.00 | 99 | 1008.0 |
| 20260905074532 | 14 | 356 | 1.6 | 1.6 | 0.00 | 0.00 | 0.00 | 99 | 1008.1 |
| 20260905074028 | 15 | 31 | 1.6 | 1.6 | 0.00 | 0.00 | 0.00 | 99 | 1008.1 |
| 20260905073523 | 15 | 339 | 0.0 | 0.0 | 0.00 | 0.00 | 0.00 | 99 | 1007.9 |
| 20260905073019 | 15 | 342 | 0.0 | 0.0 | 0.00 | 0.00 | 0.00 | 99 | 1007.9 |
| 20260905072518 | 15 | 333 | 0.0 | 0.0 | 0.00 | 0.00 | 0.00 | 99 | 1008.1 |
| 20260905072014 | 15 | 338 | 0.0 | 0.0 | 0.00 | 0.00 | 0.00 | 99 | 1008.1 |
| 20260905071511 | 15 | 313 | 0.0 | 0.0 | 0.00 | 0.00 | 0.00 | 98 | 1008.1 |
| 20260905071011 | 16 | 322 | 0.0 | 0.0 | 0.00 | 0.00 | 0.00 | 99 | 1008.1 |
| 20260905070507 | 15 | 324 | 0.0 | 1.6 | 0.00 | 0.00 | 0.00 | 99 | 1008.0 |
| 20260905070002 | 15 | 311 | 0.0 | 0.0 | 0.00 | 0.00 | 0.00 | 99 | 1008.2 |
| 20260905065500 | 15 | 340 | 0.0 | 0.0 | 0.00 | 0.00 | 0.00 | 99 | 1008.4 |
| 20260905064955 | 15 | 294 | 0.0 | 0.0 | 0.00 | 0.00 | 0.00 | 99 | 1008.3 |
| 20260905064450 | 15 | 319 | 0.0 | 0.0 | 0.00 | 0.00 | 0.00 | 99 | 1008.4 |
| 20260905063945 | 15 | 307 | 0.0 | 0.0 | 0.00 | 0.00 | 0.00 | 99 | 1008.3 |
| 20260905063439 | 15 | 344 | 0.0 | 0.0 | 0.00 | 0.00 | 0.00 | 99 | 1008.4 |
| 20260905062935 | 15 | 310 | 0.0 | 0.0 | 0.00 | 0.00 | 0.00 | 99 | 1008.4 |
| 20260905062429 | 14 | 292 | 0.0 | 0.0 | 0.00 | 0.00 | 0.00 | 99 | 1008.1 |
| 20260905061924 | 15 | 318 | 0.0 | 0.0 | 0.00 | 0.00 | 0.00 | 99 | 1008.3 |
| 20260905061419 | 15 | 313 | 0.0 | 0.0 | 0.00 | 0.00 | 0.00 | 99 | 1008.2 |
| 20260905060918 | 15 | 325 | 0.0 | 0.0 | 0.00 | 0.00 | 0.00 | 99 | 1008.2 |
| 20260905060415 | 15 | 339 | 0.0 | 1.6 | 0.00 | 0.00 | 0.00 | 99 | 1008.3 |
| 20260905055914 | 15 | 330 | 0.0 | 0.0 | 0.00 | 0.00 | 0.00 | 99 | 1008.2 |
| 20260905055410 | 15 | 298 | 0.0 | 0.0 | 0.00 | 0.00 | 0.00 | 99 | 1008.3 |
| 20260905054908 | 15 | 284 | 0.0 | 0.0 | 0.00 | 0.00 | 0.00 | 99 | 1008.4 |
| 20260905054405 | 15 | 319 | 0.0 | 0.0 | 0.00 | 0.00 | 0.00 | 99 | 1008.4 |
| 20260905053904 | 15 | 307 | 0.0 | 0.0 | 0.00 | 0.00 | 0.00 | 99 | 1008.4 |
| 20260905053359 | 15 | 302 | 0.0 | 0.0 | 0.00 | 0.00 | 0.00 | 99 | 1008.3 |
| 20260905052855 | 15 | 320 | 0.0 | 0.0 | 0.00 | 0.00 | 0.00 | 99 | 1008.3 |
| 20260905052354 | 15 | 324 | 0.0 | 0.0 | 0.00 | 0.00 | 0.00 | 99 | 1008.5 |
| 20260905051854 | 15 | 321 | 0.0 | 0.0 | 0.00 | 0.00 | 0.00 | 99 | 1008.5 |
| 20260905051350 | 14 | 307 | 0.0 | 0.0 | 0.00 | 0.00 | 0.00 | 99 | 1008.5 |
| 20260905050847 | 15 | 308 | 0.0 | 0.0 | 0.00 | 0.00 | 0.00 | 99 | 1008.4 |
| 20260905050343 | 15 | 312 | 0.0 | 0.0 | 0.00 | 0.00 | 0.00 | 99 | 1008.5 |
| 20260905045842 | 15 | 312 | 0.0 | 0.0 | 0.00 | 0.00 | 0.00 | 99 | 1008.5 |
| 20260905045338 | 15 | 318 | 0.0 | 0.0 | 0.00 | 0.00 | 0.00 | 99 | 1008.3 |
| 20260905044833 | 15 | 304 | 0.0 | 0.0 | 0.00 | 0.00 | 0.00 | 99 | 1008.3 |
| 20260905044328 | 15 | 298 | 0.0 | 0.0 | 0.00 | 0.00 | 0.00 | 99 | 1008.3 |
| 20260905043827 | 15 | 291 | 0.0 | 0.0 | 0.00 | 0.00 | 0.00 | 99 | 1008.4 |
| 20260905043322 | 15 | 306 | 0.0 | 0.0 | 0.00 | 0.00 | 0.00 | 99 | 1008.4 |
| 20260905042817 | 15 | 290 | 0.0 | 0.0 | 0.00 | 0.00 | 0.00 | 99 | 1008.3 |
| 20260905042317 | 15 | 291 | 0.0 | 0.0 | 0.00 | 0.00 | 0.00 | 99 | 1008.3 |
| 20260905041812 | 15 | 287 | 0.0 | 0.0 | 0.00 | 0.00 | 0.00 | 99 | 1008.4 |
| 20260905041308 | 15 | 290 | 0.0 | 0.0 | 0.00 | 0.00 | 0.00 | 99 | 1008.4 |
| 20260905040803 | 15 | 291 | 0.0 | 0.0 | 0.00 | 0.00 | 0.00 | 99 | 1008.6 |
| 20260905040301 | 15 | 304 | 0.0 | 0.0 | 0.00 | 0.00 | 0.00 | 99 | 1008.5 |